HELLAS-SAT 3

Last updated on Thu Nov 21 2024 00:02:43 GMT+0000 (Coordinated Universal Time)

1 42814U 17040A 24325.23155167 .00000153 00000+0 00000+0 0 9994 2 42814 0.0583 42.7850 0001543 244.8231 254.4810 1.00271871 27055
UTC large
Height (km)
Speed (km/s)
/
Latitude / Longitude
Inclination (degrees)
Orbital Period (minutes)
Azimuth
Elevation
Range (km)
Doppler Factor

Next 0 passes for location: London (51.5072 / 0.1276)

Sorry there are no passes over London.